STARLINK-31502, 59301

Orbit data source: Space-Track

STARLINK-31502, 59301 is a payload satellite owned by SpaceX/Seattle (US) in LEO that was launched on Sun, 24 Mar 2024 UTC via an FALCON 9 launch vehicle from the Air Force Eastern Test Range (AFETR). Payload-class satellites include a variety of spacecraft equipped with specific instruments for various scientific and technological missions. These include communications satellites like Starlink; space stations such as the ISS; scientific satellites like the Hubble; Earth observation satellites from companies like Planet Labs, Umbra, and HawkEye 360; GPS; miniature CubeSats for education and research; and military/defense satellites.

Loading next visibility...
Identifier
59301, 2024-056F
Orbit
LEO
Country
Flag of USUS
Related business
Manufacturer
SpaceX/Seattle
Mission
Operational Commercial Communications
Bus & Motor
STARLINK V2M, Unknown motor
Mass
730 kg wet, ~700 kg dry
Launch date (UTC)
2024-03-24 (2 years ago)
Launch vehicle
FALCON 9
Launch site
Air Force Eastern Test Range (AFETR)
Object type
Payload
Rocket body
Debris
Shape & HBR
Box + 2 Pan, 17.7 m
Radar Cross Section
33.884 m², Large (>1 m²)

Expand to show TLE details & history
Last TLE update: 3 days ago

TLE from 3 days ago
0 STARLINK-31502
1 59301U 24056F   26170.59869596  .00000155  00000-0  15154-4 0  9999
2 59301  43.0051   7.9408 0001137 267.9685  92.1036 15.27575909126826
Epoch: 2026-06-19T14:22Z
TLE epoch observation values (Epoch: 2026-06-19T14:22:07.330Z)
Latitude
-0.00007°
Longitude
-115.41519°
Altitude
482.866 km
Speed
7.626 km/s
True Right ascension
00h 31m 45s
True Declination
0° 00' 00"
Sunlit
Object was in daylight at epoch
Visualization orbit readout
Latitude
Unknown
Longitude
Unknown
Altitude
Unknown
Speed
Unknown
Apparent Right ascension
Unknown
Apparent Declination
Unknown
Sunlit
N/A
Visualization observer readout
Local Sidereal Time
21:29:07
Azimuth
Unknown
Elevation
Unknown
Doppler factor
Unknown
Orbital elements
Apogee altitude
485.786 km
Perigee altitude
484.225 km
Semi-major axis
6,863.143 km
Eccentricity
0.00011
Inclination
43.0051°
RAAN
7.9408°
Arg. of periapsis
267.9685°
True anomaly
92.11662°
Mean anomaly
92.1036°
Eccentric anomaly
92.11011°
Mean motion
3.81732 °/min
Orbital period
94.31 mins
BSTAR
0.000015154
Loading maneuver chart data...
Computing Atmospheric mass density...
Loading historical data...
Loading historical data...
Loading historical data...
Loading historical data...
Loading historical data...
Loading historical data...
Loading historical data...

Documentation

Showing up to 5 results
|